Location: Kuppenheim
(48.8299°N, 8.2568°E)
Time: 11:33:24
(UTC+00:00)

SL-16 R/B - Pass Details

Date: 20 June 2021
Orbit: 985 x 1007 km, 99.5° (Epoch: 27 July)

Event Time Altitude Azimuth Distance (km) Brightness Sun altitude
Exits shadow 00:59:51 12° 162° (SSE) 2,609 4.3 -14.9°
Maximum altitude 01:05:40 90° 230° (SW) 999 2.5 -14.5°
Drops below altitude 10° 01:11:53 10° 344° (NNW) 2,759 5.6 -14.1°
Sets 01:14:22 0° 345° (NNW) 3,710 6.4 -14.0°
